User: anonymous   Login
Location: Bishop's University Astronomical Observatory
(45.3661°N, 71.8475°W)
Time: 08:05:00
(UTC-05:00)
Language:

Meteor 2-5 Rocket - Orbit

View from above orbital plane
View from above orbital plane
View from above satellite
View from above satellite

Ground track
Ground track

The orbit data is extracted from the following two-line orbital elements,

1 11608U 79095B   16037.20104148  .00000093  00000-0  48183-4 0  9993
2 11608  81.2166 333.2726 0054928 118.1494 242.5240 14.06088062860237
Epoch (UTC): 06 February 2016 04:49:29
Eccentricity: 0.0054928
inclination: 81.2166°
perigee height: 833 km
apogee height: 912 km
right ascension of ascending node: 333.2726°
argument of perigee: 118.1494°
revolutions per day: 14.06088062
mean anomaly at epoch: 242.5240°
orbit number at epoch: 86023

The dashed part of the orbit path shows where the satellite is in the earth's shadow,  

DLR